EW5141 Weather Reports


Display with metric or nautical units.
time (UTC)temp
F
wind
direction
speed
MPH
gust
MPH
rain 1hr
in
rain 24hr
in
rain mn
in
humidity
%
barometer
mb
20260510093528 51 15 4.0 10.0 0.00 0.25 0.03 93 1010.1
20260510093028 51 23 5.0 10.0 0.00 0.25 0.03 93 1010.0
20260510092527 51 17 6.0 10.0 0.00 0.25 0.03 93 1009.9
20260510092025 52 40 6.0 9.0 0.00 0.25 0.03 93 1009.8
20260510091526 52 38 2.0 6.0 0.00 0.25 0.03 92 1009.7
20260510091023 52 304 3.0 6.0 0.00 0.25 0.03 92 1009.7
20260510090522 52 351 2.0 5.0 0.01 0.25 0.03 92 1009.6
20260510090022 52 110 1.0 4.0 0.01 0.25 0.03 92 1009.6
20260510085521 52 338 1.0 4.0 0.01 0.26 0.03 92 1009.6
20260510085020 53 355 0.0 4.0 0.01 0.26 0.03 92 1009.4
20260510084521 53 317 0.0 4.0 0.01 0.26 0.03 92 1009.3
20260510084019 53 296 1.0 3.0 0.01 0.26 0.03 92 1009.2
20260510083519 53 296 1.0 3.0 0.01 0.26 0.03 92 1009.2
20260510083019 53 296 0.0 3.0 0.01 0.26 0.03 92 1009.0
20260510082518 53 296 0.0 3.0 0.01 0.26 0.03 92 1009.1
20260510082018 53 296 0.0 1.0 0.01 0.26 0.03 92 1009.1
20260510081532 53 296 0.0 4.0 0.01 0.26 0.03 92 1009.1
20260510081019 53 296 1.0 4.0 0.01 0.26 0.03 93 1008.9
20260510080517 53 281 2.0 4.0 0.00 0.25 0.02 93 1008.9
20260510080016 53 281 1.0 4.0 0.00 0.25 0.02 93 1008.9
20260510075519 53 275 2.0 4.0 0.00 0.25 0.02 93 1008.9
20260510075016 53 317 0.0 3.0 0.00 0.25 0.02 93 1009.0
20260510074516 53 284 0.0 3.0 0.00 0.25 0.02 93 1008.9
20260510074017 53 279 1.0 3.0 0.00 0.25 0.02 92 1008.8
20260510073515 53 275 0.0 5.0 0.00 0.25 0.02 92 1008.9
20260510073016 53 299 1.0 7.0 0.00 0.25 0.02 92 1008.8
20260510072515 53 342 3.0 7.0 0.00 0.25 0.02 92 1008.9
20260510072015 53 238 2.0 4.0 0.00 0.25 0.02 92 1008.8
20260510071514 53 238 1.0 5.0 0.00 0.25 0.02 92 1008.6
20260510071013 53 238 3.0 5.0 0.00 0.25 0.02 92 1008.7
20260510070515 53 238 2.0 4.0 0.00 0.25 0.02 92 1008.5
20260510070013 53 238 2.0 5.0 0.00 0.25 0.02 92 1008.4
20260510065512 53 238 2.0 5.0 0.00 0.25 0.02 92 1008.4
20260510065012 53 202 3.0 7.0 0.00 0.25 0.02 93 1008.3
20260510064513 53 236 3.0 5.0 0.00 0.25 0.02 93 1008.4
20260510064010 53 230 2.0 6.0 0.00 0.25 0.02 93 1008.4
20260510063514 53 229 1.0 6.0 0.00 0.25 0.02 93 1008.4
20260510063013 53 269 2.0 4.0 0.00 0.25 0.02 93 1008.5
20260510062508 54 263 2.0 7.0 0.00 0.25 0.02 93 1008.4
20260510062011 54 241 1.0 7.0 0.00 0.25 0.02 94 1008.4
20260510061512 54 245 2.0 5.0 0.00 0.25 0.02 93 1008.3
20260510061007 54 244 3.0 5.0 0.01 0.25 0.02 93 1008.4
20260510060513 54 200 2.0 4.0 0.01 0.25 0.02 93 1008.3
20260510060007 54 248 2.0 4.0 0.02 0.25 0.02 93 1008.3
20260510055506 54 238 2.0 5.0 0.02 0.25 0.02 92 1008.3
20260510055007 54 254 2.0 4.0 0.02 0.25 0.02 92 1008.4
20260510054506 55 254 0.0 3.0 0.02 0.25 0.02 92 1008.3
20260510054005 55 254 1.0 5.0 0.02 0.25 0.02 92 1008.5
20260510053507 55 207 2.0 5.0 0.02 0.25 0.02 92 1008.6
20260510053005 55 213 2.0 5.0 0.02 0.25 0.02 92 1008.7
20260510052504 55 355 2.0 8.0 0.02 0.25 0.02 92 1008.9
20260510052004 55 277 3.0 11.0 0.02 0.25 0.02 93 1008.8
20260510051514 55 278 4.0 11.0 0.02 0.25 0.02 93 1009.1
20260510051002 55 242 5.0 12.0 0.01 0.24 0.01 94 1009.3
20260510050502 55 238 4.0 13.0 0.00 0.23 0.00 95 1009.3
20260510050000 54 296 8.0 13.0 0.00 0.23 0.00 95 1009.5
20260510045559 54 5 2.0 5.0 0.00 0.24 0.00 95 1009.5
20260510045058 54 204 1.0 3.0 0.00 0.24 0.00 95 1008.6
20260510044557 54 204 1.0 4.0 0.00 0.24 0.00 94 1008.2
20260510044056 54 204 2.0 4.0 0.00 0.24 0.00 95 1008.2
20260510043556 54 204 2.0 3.0 0.00 0.24 0.00 95 1008.1
20260510043056 54 205 2.0 4.0 0.00 0.24 0.00 95 1008.1
20260510042558 55 204 2.0 5.0 0.00 0.24 0.00 95 1008.1
20260510042057 55 204 3.0 5.0 0.00 0.24 0.00 95 1008.1
20260510041627 55 240 2.0 4.0 0.00 0.24 0.00 94 1008.2
20260510041053 55 9 1.0 2.0 0.01 0.24 0.00 94 1008.2
20260510040554 55 9 0.0 0.0 0.01 0.24 0.00 94 1008.2
20260510040051 55 9 0.0 5.0 0.01 0.24 0.00 94 1008.2
20260510035552 55 9 3.0 5.0 0.01 0.24 0.24 94 1008.3
20260510035051 55 9 1.0 6.0 0.01 0.24 0.24 94 1008.1
20260510034557 55 9 2.0 6.0 0.01 0.24 0.24 94 1008.3
20260510034055 55 35 0.0 4.0 0.01 0.24 0.24 94 1008.0
20260510033551 55 35 0.0 9.0 0.01 0.24 0.24 94 1008.0
20260510033102 55 48 5.0 9.0 0.01 0.24 0.24 94 1008.1
20260510032550 55 28 5.0 8.0 0.01 0.24 0.24 94 1007.9
20260510032052 55 5 4.0 6.0 0.01 0.24 0.24 94 1007.7
20260510031555 55 304 2.0 3.0 0.01 0.24 0.24 94 1007.6
20260510031053 55 205 0.0 2.0 0.00 0.23 0.23 94 1007.8
20260510030549 55 205 0.0 1.0 0.00 0.23 0.23 94 1007.5
20260510030049 55 205 0.0 0.0 0.00 0.23 0.23 94 1007.5
20260510025549 55 205 0.0 1.0 0.00 0.24 0.23 94 1007.3
20260510025049 55 205 0.0 2.0 0.00 0.24 0.23 94 1007.5
20260510024606 55 205 0.0 2.0 0.00 0.24 0.23 94 1007.7
20260510024048 55 205 0.0 3.0 0.00 0.24 0.23 94 1007.5
20260510023549 55 205 0.0 3.0 0.00 0.24 0.23 94 1007.4
20260510023052 55 205 0.0 2.0 0.00 0.24 0.23 93 1007.7
20260510022548 55 205 1.0 2.0 0.00 0.24 0.23 93 1007.9
20260510022047 55 205 0.0 3.0 0.00 0.24 0.23 93 1007.8
20260510021548 55 205 0.0 3.0 0.02 0.24 0.23 93 1007.6
20260510021047 55 205 1.0 4.0 0.06 0.24 0.23 92 1007.4
20260510020548 55 205 0.0 5.0 0.12 0.24 0.23 92 1007.6
20260510020048 55 269 1.0 3.0 0.15 0.24 0.23 92 1007.8
20260510015548 55 269 1.0 4.0 0.17 0.24 0.23 91 1007.9
20260510015047 56 269 2.0 4.0 0.17 0.24 0.23 91 1007.6
20260510014601 56 269 1.0 3.0 0.17 0.24 0.23 91 1007.7
20260510014047 56 269 0.0 3.0 0.17 0.24 0.23 90 1007.7
20260510013547 56 269 1.0 3.0 0.17 0.24 0.23 90 1007.6
20260510013100 56 269 1.0 6.0 0.17 0.24 0.23 90 1007.6
20260510012550 56 343 1.0 4.0 0.17 0.24 0.23 89 1007.5
20260510012046 56 321 1.0 7.0 0.17 0.24 0.23 88 1007.6
20260510011546 57 204 1.0 8.0 0.15 0.22 0.21 86 1007.7
20260510011048 57 232 2.0 11.0 0.11 0.18 0.17 85 1007.7
20260510010544 58 16 4.0 15.0 0.05 0.12 0.11 82 1007.6
20260510010045 59 302 3.0 17.0 0.02 0.09 0.08 78 1007.2
20260510005544 61 355 8.0 21.0 0.00 0.08 0.06 72 1006.9
20260510005047 64 41 12.0 21.0 0.00 0.08 0.06 65 1006.4
20260510004548 64 327 5.0 11.0 0.00 0.08 0.06 61 1005.5
20260510004043 64 229 4.0 11.0 0.00 0.08 0.06 61 1005.1
20260510003544 64 264 2.0 14.0 0.00 0.08 0.06 61 1005.1
20260510003044 65 227 4.0 14.0 0.00 0.08 0.06 60 1005.2
20260510002543 65 196 5.0 12.0 0.00 0.08 0.06 60 1005.3
20260510002042 65 227 5.0 13.0 0.00 0.08 0.06 61 1005.4
20260510001542 65 221 6.0 15.0 0.00 0.08 0.06 60 1005.4
20260510001042 65 232 6.0 15.0 0.00 0.08 0.06 60 1005.4
20260510000543 65 221 8.0 14.0 0.00 0.08 0.06 60 1005.4
20260510000042 65 207 6.0 14.0 0.00 0.08 0.06 60 1005.3
20260509235541 65 259 6.0 14.0 0.00 0.08 0.06 60 1005.2
20260509235045 65 248 7.0 17.0 0.00 0.08 0.06 60 1005.2
20260509234541 65 250 9.0 19.0 0.00 0.08 0.06 60 1005.2
20260509234041 66 296 6.0 21.0 0.00 0.08 0.06 60 1005.1
20260509233542 66 251 10.0 21.0 0.00 0.08 0.06 60 1005.1
20260509233043 66 205 10.0 18.0 0.00 0.08 0.06 60 1005.0
20260509232540 66 254 6.0 19.0 0.00 0.08 0.06 59 1005.1
20260509232040 66 302 4.0 19.0 0.00 0.08 0.06 59 1005.0
20260509231539 67 226 6.0 21.0 0.00 0.08 0.06 59 1005.0
20260509231041 67 228 9.0 21.0 0.00 0.08 0.06 58 1005.0
20260509230538 67 220 7.0 15.0 0.00 0.08 0.06 58 1005.0
20260509230039 67 173 8.0 19.0 0.00 0.08 0.06 58 1004.9
20260509225541 67 252 10.0 19.0 0.00 0.08 0.06 57 1004.9
20260509225037 67 254 5.0 18.0 0.00 0.08 0.06 59 1004.9
20260509224538 67 205 10.0 19.0 0.00 0.08 0.06 57 1004.9
20260509224038 67 212 12.0 22.0 0.00 0.08 0.06 57 1004.9
20260509223537 67 279 8.0 22.0 0.00 0.08 0.06 58 1004.9
20260509223043 67 223 8.0 19.0 0.00 0.08 0.06 59 1005.0
20260509222540 67 211 8.0 17.0 0.00 0.08 0.06 59 1005.1
20260509222036 67 242 10.0 19.0 0.00 0.08 0.06 58 1005.0
20260509221536 67 238 11.0 20.0 0.00 0.08 0.06 59 1005.0
20260509221034 67 210 8.0 24.0 0.00 0.08 0.06 59 1005.0
20260509220534 67 236 10.0 24.0 0.00 0.08 0.06 59 1005.1
20260509220034 67 245 8.0 17.0 0.00 0.08 0.06 59 1005.0
20260509215535 67 230 9.0 17.0 0.00 0.08 0.06 59 1005.0
20260509215033 67 254 7.0 14.0 0.00 0.08 0.06 59 1005.1
20260509214532 67 202 5.0 16.0 0.00 0.08 0.06 60 1005.2
20260509214031 67 234 9.0 19.0 0.00 0.08 0.06 59 1005.2
20260509213531 67 241 11.0 19.0 0.00 0.08 0.06 58 1005.2
20260509213031 67 234 8.0 16.0 0.00 0.08 0.06 59 1005.2
20260509212529 67 259 8.0 18.0 0.00 0.08 0.06 58 1005.2
20260509212028 67 266 8.0 20.0 0.00 0.08 0.06 59 1005.3
20260509211530 67 215 10.0 20.0 0.00 0.08 0.06 59 1005.5
20260509211028 67 255 10.0 17.0 0.00 0.08 0.06 59 1005.6
20260509210528 67 262 7.0 20.0 0.00 0.08 0.06 61 1005.6
20260509210036 66 219 8.0 18.0 0.00 0.08 0.06 60 1005.7
20260509205527 67 205 9.0 18.0 0.00 0.08 0.06 58 1005.8
20260509205030 67 266 5.0 16.0 0.00 0.08 0.06 61 1005.7
20260509204526 67 253 5.0 20.0 0.00 0.08 0.06 61 1005.6
20260509204026 67 237 8.0 20.0 0.00 0.08 0.06 60 1005.6
20260509203525 67 228 6.0 19.0 0.00 0.08 0.06 62 1005.6
20260509203025 66 200 6.0 18.0 0.00 0.08 0.06 62 1005.7
20260509202524 66 213 7.0 20.0 0.00 0.08 0.06 61 1005.8
20260509202022 67 201 8.0 15.0 0.00 0.08 0.06 62 1005.8
20260509201526 66 266 7.0 24.0 0.00 0.08 0.06 60 1005.9
20260509201024 66 275 12.0 24.0 0.00 0.08 0.06 59 1005.9
20260509200620 66 244 11.0 18.0 0.00 0.08 0.06 60 1006.0
20260509200019 66 264 4.0 15.0 0.00 0.08 0.06 62 1006.1
20260509195518 66 216 4.0 17.0 0.00 0.08 0.06 62 1006.2
20260509195017 66 205 8.0 17.0 0.00 0.08 0.06 64 1006.4
20260509194516 66 241 10.0 17.0 0.00 0.08 0.06 63 1006.4
20260509194016 66 274 9.0 19.0 0.00 0.08 0.06 63 1006.5
20260509193515 65 217 10.0 19.0 0.00 0.08 0.06 62 1006.5
20260509193014 65 247 9.0 22.0 0.00 0.08 0.06 63 1006.6
20260509192512 65 230 11.0 22.0 0.00 0.08 0.06 63 1006.6
20260509192011 65 180 9.0 17.0 0.00 0.08 0.06 65 1006.6
20260509191510 65 223 8.0 16.0 0.00 0.08 0.06 66 1006.7
20260509191010 65 251 10.0 16.0 0.00 0.08 0.06 67 1006.8
20260509190509 65 249 8.0 15.0 0.00 0.08 0.06 67 1006.8
20260509190009 65 253 8.0 15.0 0.00 0.08 0.06 65 1006.9
20260509185508 64 236 8.0 20.0 0.00 0.08 0.06 66 1006.7
20260509185007 65 261 6.0 20.0 0.00 0.08 0.06 69 1006.9
20260509184514 65 257 9.0 17.0 0.00 0.08 0.06 69 1007.0
20260509184005 64 248 5.0 16.0 0.00 0.08 0.06 70 1007.0
20260509183504 64 231 8.0 16.0 0.00 0.08 0.06 69 1007.1
20260509183004 64 232 7.0 18.0 0.00 0.08 0.06 71 1007.1
20260509182506 64 226 8.0 18.0 0.00 0.08 0.06 72 1007.1
20260509182002 63 178 7.0 18.0 0.00 0.08 0.06 73 1007.1
20260509181600 63 239 10.0 18.0 0.00 0.08 0.06 71 1007.0
20260509181059 63 277 8.0 23.0 0.00 0.08 0.06 73 1007.1
20260509180559 63 239 11.0 23.0 0.00 0.08 0.06 73 1007.2
20260509180058 63 260 9.0 18.0 0.00 0.08 0.06 74 1007.1
20260509175558 63 215 10.0 18.0 0.00 0.08 0.06 75 1007.1
20260509175056 62 258 9.0 20.0 0.00 0.08 0.06 75 1007.1
20260509174555 62 249 10.0 22.0 0.00 0.08 0.06 75 1007.1
20260509174054 61 236 8.0 14.0 0.00 0.08 0.06 79 1007.1
20260509173552 61 185 6.0 13.0 0.00 0.08 0.06 78 1007.2
20260509173116 61 192 4.0 17.0 0.00 0.08 0.06 80 1007.5
20260509172551 61 181 8.0 14.0 0.00 0.08 0.06 80 1007.4
20260509172049 61 223 6.0 10.0 0.00 0.08 0.06 81 1007.4
20260509171549 60 240 4.0 12.0 0.00 0.08 0.06 82 1007.6
20260509171047 60 249 4.0 13.0 0.00 0.08 0.06 82 1007.5
20260509170551 60 219 6.0 14.0 0.00 0.08 0.06 83 1007.5
20260509170055 60 290 3.0 17.0 0.00 0.08 0.06 86 1007.6
20260509165545 59 182 4.0 17.0 0.00 0.08 0.06 84 1007.6
20260509165044 59 198 6.0 14.0 0.00 0.08 0.06 85 1007.6
20260509164545 58 217 7.0 14.0 0.00 0.08 0.06 84 1007.7
20260509164045 59 178 5.0 12.0 0.00 0.08 0.06 84 1007.5
20260509163543 59 199 6.0 12.0 0.00 0.08 0.06 83 1007.5
20260509163045 59 232 6.0 10.0 0.00 0.08 0.06 85 1007.4
20260509162542 59 206 3.0 10.0 0.00 0.08 0.06 86 1007.4
20260509162039 59 251 2.0 12.0 0.00 0.08 0.06 87 1007.5
20260509161542 58 248 4.0 11.0 0.00 0.08 0.06 87 1007.5
20260509161040 58 241 6.0 12.0 0.00 0.08 0.06 87 1007.5
20260509160537 58 208 3.0 12.0 0.00 0.08 0.06 87 1007.5
20260509160037 57 227 5.0 12.0 0.00 0.08 0.06 86 1007.5
20260509155535 57 267 5.0 11.0 0.00 0.08 0.06 87 1007.5
20260509155034 56 255 7.0 15.0 0.00 0.08 0.06 87 1007.5
20260509154534 56 263 9.0 15.0 0.00 0.08 0.06 86 1007.4
20260509154035 56 260 8.0 14.0 0.00 0.08 0.06 87 1007.3
20260509153533 57 257 7.0 14.0 0.00 0.08 0.06 88 1007.3
20260509153035 56 270 7.0 14.0 0.00 0.08 0.06 89 1007.2
20260509152531 56 260 6.0 13.0 0.00 0.08 0.06 90 1007.2
20260509152030 56 257 6.0 11.0 0.00 0.08 0.06 92 1007.3
20260509151528 55 244 5.0 16.0 0.00 0.08 0.06 92 1007.2
20260509151032 55 271 5.0 16.0 0.00 0.08 0.06 93 1007.2
20260509150526 55 280 4.0 10.0 0.00 0.08 0.06 93 1007.1
20260509150026 54 213 4.0 10.0 0.00 0.08 0.06 93 1007.2
20260509145526 54 246 5.0 14.0 0.00 0.08 0.06 94 1007.2
20260509145026 54 239 6.0 14.0 0.00 0.08 0.06 94 1007.2
20260509144525 54 194 4.0 14.0 0.00 0.08 0.06 95 1007.1
20260509144024 54 232 5.0 10.0 0.00 0.08 0.06 96 1007.2
20260509143529 54 252 6.0 10.0 0.00 0.08 0.06 96 1007.2
20260509143021 53 230 3.0 8.0 0.00 0.08 0.06 96 1007.2
20260509142519 53 234 4.0 11.0 0.00 0.08 0.06 96 1007.3
20260509142019 53 223 3.0 11.0 0.00 0.08 0.06 96 1007.4
20260509141519 53 237 3.0 11.0 0.00 0.08 0.06 96 1007.4
20260509141019 53 240 7.0 11.0 0.00 0.08 0.06 96 1007.4
20260509140519 53 246 6.0 10.0 0.00 0.08 0.06 96 1007.3
20260509140018 53 227 2.0 10.0 0.00 0.08 0.06 97 1007.2
20260509135516 52 250 3.0 10.0 0.00 0.08 0.06 96 1007.2
20260509135015 52 232 2.0 6.0 0.00 0.08 0.06 96 1007.3
20260509134514 52 233 2.0 8.0 0.00 0.08 0.06 96 1007.2
20260509134013 52 246 2.0 9.0 0.00 0.08 0.06 96 1007.4
20260509133512 52 205 4.0 9.0 0.00 0.08 0.06 96 1007.5
20260509133011 52 205 2.0 9.0 0.00 0.08 0.06 96 1007.5
20260509132510 51 241 4.0 9.0 0.00 0.08 0.06 96 1007.6
20260509132007 51 248 3.0 7.0 0.00 0.08 0.06 96 1007.7
20260509131506 51 267 3.0 7.0 0.00 0.08 0.06 96 1007.6
20260509131004 51 220 2.0 11.0 0.00 0.08 0.06 96 1007.6
20260509130504 51 252 4.0 11.0 0.00 0.08 0.06 96 1007.7
20260509130009 51 228 3.0 8.0 0.00 0.08 0.06 96 1007.6
20260509125503 51 252 3.0 9.0 0.00 0.08 0.06 96 1007.7
20260509125002 51 240 4.0 9.0 0.00 0.08 0.06 96 1007.8
20260509124502 51 255 3.0 7.0 0.00 0.08 0.06 96 1007.7
20260509124003 51 289 2.0 10.0 0.00 0.08 0.06 96 1007.6
20260509123503 51 232 4.0 12.0 0.00 0.08 0.06 96 1007.6
20260509123001 51 244 3.0 9.0 0.00 0.08 0.06 96 1007.6
20260509122501 51 247 4.0 10.0 0.00 0.08 0.06 96 1007.5
20260509122103 50 230 4.0 10.0 0.00 0.08 0.06 96 1007.6
20260509121600 50 217 4.0 12.0 0.01 0.08 0.06 96 1007.7
20260509121059 50 234 4.0 12.0 0.01 0.08 0.06 96 1007.7
20260509120559 50 205 4.0 12.0 0.01 0.08 0.06 96 1007.7
20260509120058 50 257 4.0 12.0 0.01 0.08 0.06 96 1007.7
20260509115556 50 210 4.0 9.0 0.01 0.08 0.06 95 1007.8
20260509115056 50 244 5.0 10.0 0.02 0.08 0.06 95 1007.8
20260509114626 50 255 2.0 9.0 0.02 0.08 0.06 95 1007.8
20260509114055 50 227 3.0 9.0 0.03 0.08 0.06 95 1007.8
20260509113554 50 229 2.0 7.0 0.03 0.08 0.06 95 1007.7
20260509113119 50 245 4.0 7.0 0.03 0.08 0.06 95 1007.7
20260509112555 50 244 2.0 12.0 0.03 0.08 0.06 95 1007.7
20260509112053 50 221 5.0 12.0 0.03 0.08 0.06 95 1007.8
20260509111552 50 186 3.0 7.0 0.02 0.07 0.05 95 1007.7
20260509111052 50 233 3.0 10.0 0.02 0.07 0.05 95 1007.6
20260509110551 50 211 3.0 10.0 0.02 0.07 0.05 95 1007.6
20260509110058 50 236 4.0 13.0 0.02 0.07 0.05 95 1007.5
20260509105551 50 216 5.0 13.0 0.01 0.06 0.04 94 1007.5
20260509105049 50 204 6.0 12.0 0.01 0.06 0.04 94 1007.4
20260509104549 50 236 4.0 10.0 0.01 0.06 0.04 94 1007.3
20260509104048 50 203 6.0 10.0 0.00 0.05 0.03 94 1007.2
20260509103547 50 254 4.0 10.0 0.00 0.05 0.03 94 1007.2
20260509103049 50 155 4.0 8.0 0.00 0.05 0.03 94 1007.2
20260509102547 50 235 4.0 9.0 0.00 0.05 0.03 94 1007.2
20260509102046 50 258 3.0 8.0 0.00 0.05 0.03 94 1007.2
20260509101558 50 234 2.0 8.0 0.00 0.05 0.03 94 1007.3
20260509101045 50 248 2.0 8.0 0.01 0.05 0.03 94 1007.3
20260509100544 50 248 3.0 8.0 0.01 0.05 0.03 94 1007.3
20260509100044 50 238 3.0 7.0 0.01 0.05 0.03 93 1007.2
20260509095544 50 236 2.0 6.0 0.01 0.05 0.03 93 1007.2
20260509095044 50 227 1.0 7.0 0.02 0.05 0.03 93 1007.2
20260509094543 50 221 2.0 7.0 0.02 0.05 0.03 93 1007.4
20260509094042 50 240 3.0 8.0 0.02 0.05 0.03 93 1007.5
20260509093542 50 223 2.0 8.0 0.02 0.05 0.03 93 1007.6